Location: Larrial
(48.2758°N, 4.5331°W)
Time: 09:11:46
(UTC+00:00)

Cosmos 1697 Rocket - Pass Details

Date: 09 April 2020
Orbit: 831 x 845 km, 71.0° (Epoch: 01 June)

Event Time Altitude Azimuth Distance (km) Brightness Sun altitude
Rises 22:48:48 0° 325° (NW) 3,412 7.0 -30.3°
Reaches altitude 10° 22:51:28 10° 316° (NW) 2,474 5.9 -30.5°
Enters shadow 22:56:07 33° 262° (W) 1,399 3.9 -30.8°
